| time (UTC) | temp F | wind direction | speed MPH | gust MPH | rain 1hr in | rain 24hr in | rain mn in | humidity % | barometer mb |
| 20260505235046 | 48 | 8 | 4.0 | 9.0 | 0.05 | 0.26 | 0.09 | 10 | 1006.9 |
| 20260505234045 | 48 | 8 | 4.0 | 10.0 | 0.06 | 0.26 | 0.09 | 10 | 1006.9 |
| 20260505233046 | 48 | 86 | 4.0 | 11.0 | 0.06 | 0.25 | 0.09 | 10 | 1006.9 |
| 20260505232047 | 49 | 268 | 4.0 | 10.0 | 0.06 | 0.24 | 0.08 | 10 | 1007.0 |
| 20260505231046 | 49 | 7 | 3.0 | 8.0 | 0.06 | 0.24 | 0.07 | 10 | 1007.0 |
| 20260505230048 | 49 | 6 | 4.0 | 9.0 | 0.06 | 0.23 | 0.06 | 10 | 1007.1 |
| 20260505225049 | 49 | 212 | 4.0 | 9.0 | 0.06 | 0.22 | 0.06 | 10 | 1007.1 |
| 20260505224047 | 49 | 5 | 3.0 | 8.0 | 0.06 | 0.21 | 0.05 | 10 | 1007.1 |
| 20260505223048 | 49 | 13 | 4.0 | 10.0 | 0.06 | 0.20 | 0.04 | 10 | 1007.1 |
| 20260505222047 | 49 | 20 | 3.0 | 6.0 | 0.06 | 0.20 | 0.03 | 10 | 1007.2 |
| 20260505221047 | 49 | 28 | 3.0 | 7.0 | 0.05 | 0.18 | 0.02 | 10 | 1007.2 |
| 20260505214050 | 49 | 39 | 5.0 | 11.0 | 0.05 | 0.16 | 0.16 | 99 | 1007.3 |
| 20260505213051 | 49 | 34 | 5.0 | 12.0 | 0.05 | 0.15 | 0.15 | 99 | 1007.4 |
| 20260505212051 | 49 | 31 | 5.0 | 10.0 | 0.06 | 0.15 | 0.15 | 99 | 1007.4 |
| 20260505211050 | 49 | 25 | 6.0 | 13.0 | 0.06 | 0.14 | 0.14 | 99 | 1007.5 |
| 20260505210047 | 49 | 278 | 6.0 | 12.0 | 0.06 | 0.13 | 0.13 | 99 | 1007.5 |
| 20260505205048 | 50 | 27 | 3.0 | 7.0 | 0.06 | 0.13 | 0.13 | 99 | 1007.5 |
| 20260505204051 | 50 | 25 | 4.0 | 9.0 | 0.06 | 0.12 | 0.12 | 10 | 1007.5 |
| 20260505203047 | 50 | 28 | 3.0 | 6.0 | 0.06 | 0.11 | 0.11 | 99 | 1007.5 |
| 20260505202050 | 50 | 27 | 4.0 | 9.0 | 0.06 | 0.10 | 0.10 | 99 | 1007.5 |
| 20260505200049 | 50 | 78 | 5.0 | 10.0 | 0.06 | 0.09 | 0.09 | 99 | 1007.4 |
| 20260505195046 | 50 | 28 | 5.0 | 10.0 | 0.06 | 0.08 | 0.08 | 99 | 1007.4 |
| 20260505193051 | 50 | 26 | 5.0 | 11.0 | 0.05 | 0.06 | 0.06 | 99 | 1007.3 |
| 20260505192048 | 50 | 35 | 4.0 | 8.0 | 0.05 | 0.06 | 0.06 | 99 | 1007.3 |
| 20260505191048 | 50 | 30 | 5.0 | 10.0 | 0.05 | 0.05 | 0.05 | 99 | 1007.2 |
| 20260505190050 | 50 | 29 | 4.0 | 9.0 | 0.04 | 0.04 | 0.04 | 98 | 1007.2 |
| 20260505185048 | 50 | 32 | 4.0 | 8.0 | 0.03 | 0.03 | 0.03 | 98 | 1007.2 |
| 20260505183047 | 50 | 30 | 4.0 | 8.0 | 0.02 | 0.02 | 0.02 | 98 | 1007.1 |
| 20260505182048 | 51 | 26 | 4.0 | 9.0 | 0.02 | 0.02 | 0.02 | 97 | 1007.2 |
| 20260505181050 | 51 | 28 | 4.0 | 10.0 | 0.01 | 0.01 | 0.01 | 97 | 1007.2 |
| 20260505180048 | 51 | 21 | 5.0 | 12.0 | 0.00 | 0.00 | 0.00 | 96 | 1007.2 |
| 20260505175047 | 51 | 20 | 4.0 | 9.0 | 0.00 | 0.00 | 0.00 | 96 | 1007.2 |
| 20260505174047 | 51 | 33 | 5.0 | 10.0 | 0.00 | 0.00 | 0.00 | 95 | 1007.3 |
| 20260505172045 | 51 | 22 | 4.0 | 11.0 | 0.00 | 0.00 | 0.00 | 95 | 1007.3 |
| 20260505171048 | 51 | 20 | 4.0 | 7.0 | 0.00 | 0.00 | 0.00 | 95 | 1007.3 |
| 20260505165048 | 51 | 17 | 3.0 | 9.0 | 0.00 | 0.00 | 0.00 | 95 | 1007.4 |
| 20260505164047 | 51 | 8 | 4.0 | 8.0 | 0.00 | 0.00 | 0.00 | 96 | 1007.4 |
| 20260505162045 | 51 | 9 | 4.0 | 8.0 | 0.00 | 0.01 | 0.00 | 96 | 1007.4 |
| 20260505161047 | 51 | 23 | 5.0 | 10.0 | 0.00 | 0.02 | 0.00 | 95 | 1007.5 |
| 20260505153045 | 52 | 9 | 5.0 | 11.0 | 0.00 | 0.15 | 0.00 | 94 | 1007.5 |
| 20260505151043 | 52 | 17 | 3.0 | 9.0 | 0.00 | 0.20 | 0.00 | 94 | 1007.6 |
| 20260505124046 | 53 | 17 | 4.0 | 8.0 | 0.00 | 0.46 | 0.00 | 94 | 1008.2 |
| 20260505123046 | 53 | 18 | 5.0 | 10.0 | 0.00 | 0.46 | 0.00 | 94 | 1008.3 |
| 20260505121045 | 54 | 11 | 5.0 | 11.0 | 0.00 | 0.46 | 0.00 | 94 | 1008.3 |
| 20260505120045 | 54 | 350 | 5.0 | 11.0 | 0.00 | 0.46 | 0.00 | 94 | 1008.2 |
| 20260505115044 | 54 | 72 | 4.0 | 9.0 | 0.00 | 0.46 | 0.00 | 94 | 1008.3 |
| 20260505114047 | 54 | 188 | 5.0 | 10.0 | 0.00 | 0.46 | 0.00 | 94 | 1008.3 |
| 20260505113045 | 54 | 20 | 5.0 | 11.0 | 0.00 | 0.46 | 0.00 | 95 | 1008.3 |
| 20260505112046 | 54 | 18 | 5.0 | 10.0 | 0.00 | 0.46 | 0.00 | 95 | 1008.3 |
| 20260505111048 | 54 | 20 | 6.0 | 11.0 | 0.00 | 0.46 | 0.00 | 95 | 1008.3 |
| 20260505101049 | 54 | 16 | 6.0 | 12.0 | 0.00 | 0.46 | 0.00 | 97 | 1008.5 |
| 20260505100044 | 54 | 14 | 5.0 | 12.0 | 0.00 | 0.46 | 0.00 | 97 | 1008.5 |
| 20260505095046 | 54 | 12 | 5.0 | 11.0 | 0.00 | 0.46 | 0.00 | 97 | 1008.5 |
| 20260505094048 | 55 | 16 | 5.0 | 11.0 | 0.00 | 0.46 | 0.00 | 96 | 1008.5 |
| 20260505093047 | 55 | 17 | 5.0 | 11.0 | 0.00 | 0.46 | 0.00 | 97 | 1008.6 |
| 20260505092045 | 55 | 12 | 5.0 | 12.0 | 0.00 | 0.46 | 0.00 | 96 | 1008.6 |
| 20260505091047 | 55 | 94 | 5.0 | 10.0 | 0.00 | 0.46 | 0.00 | 96 | 1008.6 |
| 20260505090045 | 56 | 305 | 5.0 | 9.0 | 0.00 | 0.46 | 0.00 | 95 | 1008.5 |
| 20260505085047 | 57 | 49 | 3.0 | 4.0 | 0.00 | 0.46 | 0.00 | 92 | 1008.5 |
| 20260505084046 | 58 | 42 | 3.0 | 5.0 | 0.00 | 0.46 | 0.00 | 89 | 1008.4 |
| 20260505083046 | 59 | 23 | 2.0 | 6.0 | 0.00 | 0.46 | 0.00 | 89 | 1008.4 |
| 20260505082048 | 59 | 17 | 2.0 | 6.0 | 0.00 | 0.46 | 0.00 | 91 | 1008.3 |
| 20260505080050 | 58 | 23 | 2.0 | 5.0 | 0.00 | 0.46 | 0.00 | 92 | 1008.4 |
| 20260505075042 | 58 | 5 | 2.0 | 5.0 | 0.00 | 0.46 | 0.00 | 92 | 1008.5 |
| 20260505074044 | 58 | 33 | 2.0 | 5.0 | 0.00 | 0.46 | 0.00 | 94 | 1008.5 |
| 20260505073043 | 57 | 15 | 2.0 | 5.0 | 0.00 | 0.46 | 0.00 | 94 | 1008.5 |
| 20260505072044 | 57 | 30 | 2.0 | 4.0 | 0.00 | 0.46 | 0.00 | 94 | 1008.5 |
| 20260505071045 | 57 | 22 | 2.0 | 4.0 | 0.00 | 0.46 | 0.00 | 97 | 1008.5 |
| 20260505065046 | 55 | 15 | 1.0 | 3.0 | 0.00 | 0.46 | 0.00 | 99 | 1008.6 |
| 20260505064044 | 55 | 20 | 2.0 | 3.0 | 0.00 | 0.46 | 0.00 | 99 | 1008.7 |
| 20260505063043 | 55 | 30 | 1.0 | 3.0 | 0.00 | 0.46 | 0.00 | 99 | 1008.8 |
| 20260505062044 | 55 | 16 | 2.0 | 3.0 | 0.00 | 0.46 | 0.00 | 99 | 1008.8 |
| 20260505061046 | 55 | 9 | 2.0 | 3.0 | 0.00 | 0.46 | 0.00 | 10 | 1008.9 |
| 20260505060044 | 54 | 36 | 2.0 | 3.0 | 0.00 | 0.46 | 0.00 | 10 | 1008.9 |
| 20260505055047 | 54 | 54 | 1.0 | 3.0 | 0.00 | 0.46 | 0.00 | 10 | 1008.9 |
| 20260505054045 | 54 | 71 | 1.0 | 2.0 | 0.00 | 0.46 | 0.00 | 10 | 1008.9 |
| 20260505053046 | 54 | 24 | 0.0 | 0.0 | 0.00 | 0.46 | 0.00 | 10 | 1008.8 |
| 20260505052044 | 54 | 87 | 1.0 | 2.0 | 0.00 | 0.46 | 0.00 | 99 | 1008.8 |
| 20260505051047 | 54 | 134 | 0.0 | 1.0 | 0.00 | 0.46 | 0.00 | 99 | 1008.8 |
| 20260505041043 | 53 | 135 | 0.0 | 0.0 | 0.00 | 0.46 | 0.00 | 99 | 1008.9 |
| 20260505040045 | 54 | 279 | 0.0 | 0.0 | 0.00 | 0.46 | 0.00 | 99 | 1008.9 |
| 20260505035046 | 54 | 193 | 0.0 | 0.0 | 0.00 | 0.46 | 0.00 | 99 | 1008.9 |
| 20260505034045 | 53 | 172 | 0.0 | 0.0 | 0.00 | 0.46 | 0.00 | 98 | 1009.0 |
| 20260505033048 | 53 | 160 | 1.0 | 2.0 | 0.00 | 0.46 | 0.00 | 98 | 1009.0 |
| 20260505032044 | 54 | 251 | 1.0 | 2.0 | 0.00 | 0.46 | 0.00 | 98 | 1009.1 |
| 20260505031044 | 54 | 262 | 0.0 | 2.0 | 0.00 | 0.46 | 0.00 | 98 | 1009.1 |
| 20260505030045 | 54 | 183 | 0.0 | 2.0 | 0.00 | 0.46 | 0.00 | 98 | 1009.2 |
| 20260505025046 | 54 | 52 | 0.0 | 1.0 | 0.00 | 0.46 | 0.00 | 98 | 1009.2 |
| 20260505024048 | 54 | 121 | 2.0 | 4.0 | 0.00 | 0.46 | 0.00 | 98 | 1009.3 |
| 20260505022046 | 54 | 105 | 1.0 | 2.0 | 0.00 | 0.46 | 0.00 | 98 | 1009.4 |
| 20260505021046 | 54 | 87 | 1.0 | 3.0 | 0.00 | 0.46 | 0.00 | 99 | 1009.4 |
| 20260505020047 | 54 | 70 | 1.0 | 2.0 | 0.00 | 0.46 | 0.00 | 98 | 1009.4 |
| 20260505015046 | 54 | 81 | 1.0 | 2.0 | 0.00 | 0.46 | 0.00 | 98 | 1009.4 |
| 20260505014046 | 54 | 317 | 0.0 | 1.0 | 0.00 | 0.46 | 0.00 | 97 | 1009.5 |
| 20260505013044 | 54 | 5 | 1.0 | 1.0 | 0.00 | 0.46 | 0.00 | 97 | 1009.5 |
| 20260505012046 | 54 | 143 | 1.0 | 2.0 | 0.00 | 0.46 | 0.00 | 97 | 1009.5 |
| 20260505011044 | 54 | 218 | 1.0 | 3.0 | 0.00 | 0.46 | 0.00 | 96 | 1009.6 |
| 20260505010044 | 55 | 257 | 0.0 | 1.0 | 0.00 | 0.46 | 0.00 | 97 | 1009.7 |
| 20260505005047 | 55 | 93 | 0.0 | 0.0 | 0.00 | 0.46 | 0.00 | 97 | 1009.8 |
| 20260505003046 | 55 | 151 | 1.0 | 2.0 | 0.00 | 0.46 | 0.00 | 95 | 1009.9 |
| 20260505002044 | 55 | 173 | 0.0 | 2.0 | 0.00 | 0.46 | 0.00 | 95 | 1010.0 |
| 20260505001047 | 55 | 135 | 1.0 | 2.0 | 0.00 | 0.46 | 0.00 | 96 | 1010.1 |